Regional Weather Roundup
Issued by NWS

Home | Current Version | Previous Version | Text Only | Print | Product List | Glossary On
Versions: 1 2 3 4 5 6 7 8 9 10 11 12 13 14 15 16 17 18 19 20 21 22 23 24 25 26 27 28 29 30 31 32 33 34 35 36 37 38 39 40 41 42 43 44 45 46 47 48 49 50
000
ASUS43 KLSX 230307
RWRMO

WEATHER SUMMARY FOR MISSOURI
NATIONAL WEATHER SERVICE SPRINGFIELD MO
900 PM CST WED FEB 22 2017

NOTE: "FAIR" INDICATES FEW OR NO CLOUDS BELOW 12,000 FEET WITH NO
       SIGNIFICANT WEATHER AND/OR OBSTRUCTIONS TO VISIBILITY.
       CURRENT SKY AND/OR WEATHER CONDITIONS ARE NOT AVAILABLE FOR
       CHILLICOTHE AND FARMINGTON.

MOZ001>031-035>038-043-044-053-054-230400-
...NORTHERN AND WESTERN MISSOURI...

CITY           SKY/WX    TMP DP  RH WIND       PRES   REMARKS
KANSAS CTY INT MOCLDY    60  37  42 N12       29.68R
KANSAS C DTWN  PTCLDY    58  38  47 CALM      29.67R
LEE`S SUMMIT   PTCLDY    65  36  34 W3        29.68R
ST JOSEPH      CLEAR     50  37  61 N9        29.70R
CHILLICOTHE      N/A     60  37  42 N3        29.70R
KIRKSVILLE     CLEAR     57  43  59 NW6       29.69R

$$
MOZ066>068-077>081-088>096-101>105-230400-
...SOUTHWEST MISSOURI...

CITY           SKY/WX    TMP DP  RH WIND       PRES   REMARKS
SPRINGFIELD    CLEAR     60  54  80 S12       29.74R
JOPLIN         CLEAR     61  44  53 S7        29.71F
BRANSON        PTCLDY    61  54  77 CALM      29.77R

$$
MOZ032>034-039>042-045>050-055>058-069>072-230400-
...CENTRAL MISSOURI...

CITY           SKY/WX    TMP DP  RH WIND       PRES   REMARKS
COLUMBIA       CLOUDY    59  53  80 S7        29.70R
JEFFERSON CITY PTCLDY    56  51  84 SE7       29.70R
ROLLA          PTCLDY    59  55  87 S14       29.72R
SEDALIA        PTCLDY    64  53  67 S12       29.69R
WHITEMAN AFB   PTCLDY    58  45  60 SW9       29.67R
WARRENSBURG    MOCLDY    63  45  51 S9        29.68R
OSAGE BEACH    CLEAR     62  53  72 S9        29.72R

$$
MOZ051-052-059>065-230400-
...EAST CENTRAL MISSOURI...

CITY           SKY/WX    TMP DP  RH WIND       PRES   REMARKS
ST LOUIS INTL  PTCLDY    67  52  58 S12       29.71R
SPIRIT OF STL  PTCLDY    64  54  69 SW8       29.71R
ST CHARLES     PTCLDY    53  52  96 W5        29.71R

$$
MOZ072>076-082>087-097>100-106>115-230400-
...SOUTH CENTRAL AND SOUTHEAST MISSOURI...

CITY           SKY/WX    TMP DP  RH WIND       PRES   REMARKS
CAPE GIRARDEAU CLEAR     57  54  89 S6        29.78S
FARMINGTON     CLEAR     58  54  86 S10       29.77F
POPLAR BLUFF   CLEAR     58  56  93 SW3       29.79R
WEST PLAINS    CLEAR     55  53  93 S5        29.81R

$$



USA.gov is the U.S. government's official web portal to all federal, state and local government web resources and services.